COSMOS 2380 (GLONASS)

Satellite information

Favourite Embed

Satellite Type and Status

PAYLOADIN ORBIT

Key statistics

Satellite COSMOS 2380 (GLONASS) at a glance.

Uptime

8728

Days in orbit

Revolutions

≈ 2.1

Per day

Orbit

MEO

Medium Earth Orbit

Inclination

63.9

Latest

Satellite identification and parameters

Extended collection of information and parameters for COSMOS 2380 (GLONASS).

Object identification

Identified? True

Debris? False

Object name: COSMOS 2380 (GLONASS)

International designator: 2001-053C

Object number (NORAD): 26989

Object ID (CCSDS): 26989

Country: COMMONWEALTH OF INDEPENDENT STATES (CIS)

Current information (Y/N): Y

RCS size: LARGE

Orbital parameters

Period: 675.73 minutes

Inclination: 63.9212 deg

SMA: 25507.966 km

Apoapsis: 19143.947 km

Periapsis: 19115.715 km

RAAN: 66.0924 deg

Eccentricy: 0.0005534

Argument of periapsis: 43.5696 deg

Mean anomaly: 133.695 deg

Mean motion: 2.13102736 rev/day

Mean motion (dot): 0.00000001 rev/day2

B* drag term: 0.0 1/REarth

Two-line elements (TLE)

Creation date: Oct. 16, 2025, 2:37 a.m.

Reference frame: TEME

Reference center: EARTH

Epoch: Oct. 15, 2025, 7:52 p.m. UTC

TLE line 0: 0 COSMOS 2380 (GLONASS)

TLE line 1: 1 26989U 01053C 25288.82795789 .00000001 00000-0 00000-0 0 9994

TLE line 2: 2 26989 63.9212 66.0924 0005534 43.5696 133.6950 2.13102736185800

Live tracking on map

Real-time ground track for satellite COSMOS 2380 (GLONASS).

In-orbit conjunctions

A list of the most updated potential collisions computed for object COSMOS 2380 (GLONASS).

Target Orbit TCA Probability of collision Miss distance Type
SL-12 R/B(2) MEO 2025-10-04 09:57:14 TBA 3185.0 (m) ROCKET BODY
COSMOS 1555 (GLONASS) MEO 2025-08-06 01:31:23 TBA 4999.0 (m) PAYLOAD
COSMOS 1555 (GLONASS) MEO 2025-08-05 14:15:39 TBA 3875.0 (m) PAYLOAD
COSMOS 1555 (GLONASS) MEO 2025-08-05 02:59:55 TBA 2716.0 (m) PAYLOAD
COSMOS 1555 (GLONASS) MEO 2025-08-04 15:44:10 TBA 1758.0 (m) PAYLOAD

Associated space launch

GLONASS navigation satellites

COSMOS 2380 (GLONASS) was lifted into orbit during the mission ‘Proton | Uragan 78, 79 & Uragan-M 1’, on board a Proton space rocket.

The launch took place on Dec. 1, 2001, 6:04 p.m. from 81/24 (81P).

For more information about the launch, click the button.

Launch to space Proton | Uragan 78, 79 & Uragan-M 1
Proton | Uragan 78, 79 & Uragan-M 1

Agency: N/A

Status: Launch Successful

Launch date: Dec. 1, 2001, 6:04 p.m. UTC

Rocket: Proton

Launch pad: 81/24 (81P)

Location: Baikonur Cosmodrome, Republic of Kazakhstan

...

Latest news about this satellite

There are no fresh news available about this satellite. Check back as we update our databases every day.


Newsletter sign-up

Weekly statistics, charts and insights to help you stay on top of the space industry.